ATLAS 5 CENTAUR DEB, 44667

Orbit data source: Space-Track

ATLAS 5 CENTAUR DEB, 44667 is space debris in HEO originally from a launch on Wed, 17 Oct 2018 UTC launched from the Air Force Eastern Test Range (AFETR). Debris objects in space refer to the collection of defunct objects orbiting the Earth. Examples of debris include non-operational satellites, rocket bodies, and fragments generated from explosions, collisions, or faulty payload assembly.

Loading next visibility...
Identifier
44667, 2018-079AD
Orbit
HEO
Country
Flag of USUS
Related business
Flag of USUnited Launch Alliance/Lockheed Martin (US)
Manufacturer
ULA Decatur
Mission
Spacecraft
Bus & Motor
Unknown
Mass
Unknown
Launch date (UTC)
2018-10-17 (7 years ago)
Launch vehicle
Unknown
Launch site
Air Force Eastern Test Range (AFETR)
Object type
Payload
Rocket body
Debris
Shape & HBR
Unknown
Radar Cross Section
RCS unknown

Expand to show TLE details & history
Last TLE update: 4 days ago

TLE from 4 days ago
0 ATLAS 5 CENTAUR DEB
1 44667U 18079AD  25239.10955884 -.00000160  00000-0  00000-0 0  9991
2 44667  13.1989  41.3761 4500275 305.8534  20.1235  1.90728986 12559
Epoch: 2025-08-27T02:37Z
TLE epoch observation values (Epoch: 2025-08-27T02:37:45.883Z)
Latitude
-0.00007°
Longitude
26.40424°
Altitude
10,937.766 km
Speed
5.615 km/s
True Right ascension
02h 45m 44s
True Declination
0° 00' 00"
Sunlit
Object was in daylight at epoch
Visualization orbit readout
Latitude
Unknown
Longitude
Unknown
Altitude
Unknown
Speed
Unknown
Apparent Right ascension
Unknown
Apparent Declination
Unknown
Sunlit
N/A
Visualization observer readout
Local Sidereal Time
16:51:48
Azimuth
Unknown
Elevation
Unknown
Doppler factor
Unknown
Orbital elements
Apogee altitude
33,450.921 km
Perigee altitude
8,728.395 km
Semi-major axis
27,467.795 km
Eccentricity
0.45003
Inclination
13.1989°
RAAN
41.3761°
Arg. of periapsis
305.8534°
True anomaly
54.02654°
Mean anomaly
20.1235°
Eccentric anomaly
34.86211°
Mean motion
0.47677 °/min
Orbital period
755.08 mins
BSTAR
0
Loading maneuver chart data...
Computing Atmospheric mass density...

Documentation

Showing up to 5 results
|